sat.trackr.live / text

‹ back to catalog

SITRO-AIS 46

NORAD 61774 · 2024-199AR

PAYLOAD ACTIVE UNKNOWN

§ Identity

Operator
Country
CIS
Launch date
2024-11-04
Launch site
VOSTO
Launch vehicle
Mass (kg)
RCS (m²)

External: N2YO · Heavens-Above · Gunter

§ Orbital elements

Epoch: 2026-09-22T19:39:48.828096Z

Period
91.54 min
Inclination
97.2666°
Eccentricity
0.0001255
Mean motion
15.73065513 rev/d
Perigee alt
349.3 km
Apogee alt
351.0 km
Semi-major
6,728.3 km
B*
5.8821e-4
RAAN
145.7011°
Arg perigee
264.1804°
Mean anomaly
95.9317°
Rev number
14,975

§ Raw data

SITRO-AIS 461 61774U 24199AR  26265.81931514  .00080740  00000+0  58821-3 0  99982 61774  97.2666 145.7011 0001255 264.1804  95.9317 15.73065513149756

JSON: /api/v1/satellites/61774 · /tle

For live sub-satellite position, see the globe view (requires WebGL).

§ Visibility from observer

Set your observer location to see the next 7 days of passes ≥ 10°. The values pass through the URL so the page stays shareable.

No JS? Fill the form by hand. The geolocation button needs JavaScript.

§ Radio — SatNOGS DB

ModeDescriptionDownlinkUplink
GMSK USP Mode U - GMSK2k4 - USP 401.205 MHz

1 transmitter · refreshed weekly from db.satnogs.org